{"data":{"norad_id":52477,"epoch":"2026-09-19T16:33:37.160352Z","epoch_age_seconds":133247,"freshness":"FRESH","line1":"1 52477U 22049AC  26262.69001343  .00000497  00000+0  25856-4 0  9995","line2":"2 52477  53.1603 247.1543 0001249  95.0476 265.0669 15.34387269243065","mean_motion":15.34387269,"eccentricity":0.0001249,"inclination_deg":53.1603,"raan_deg":247.1543,"arg_perigee_deg":95.0476,"mean_anomaly_deg":265.0669,"bstar":2.5856e-5,"rev_number":24306,"period_min":93.848536747733,"perigee_km":461.88665401152,"apogee_km":463.59550535583,"semimajor_km":6840.8780796837,"source":"CELESTRAK","updated_at":"2026-09-20T09:00:40.052670Z"}}